User: anonymous   Login
Location: Unspecified
(0.0000°N, 0.0000°E)
Time: 14:50:35
(UTC+00:00)
Language:

PAYLOAD B - Orbit

View from above orbital plane
View from above orbital plane
View from above satellite
View from above satellite

Ground track
Ground track

The orbit data is extracted from the following two-line orbital elements,

1 27431U 02024B   17206.01134245 -.00000014 +00000-0 +18076-4 0  9993
2 27431 099.0319 178.2297 0015243 347.4166 012.6621 14.09627735781730
Epoch (UTC): 25 July 2017 00:16:19
Eccentricity: 0.0015243
inclination: 99.0319°
perigee height: 849 km
apogee height: 871 km
right ascension of ascending node: 178.2297°
argument of perigee: 347.4166°
revolutions per day: 14.09627735
mean anomaly at epoch: 12.6621°
orbit number at epoch: 78173

The dashed part of the orbit path shows where the satellite is in the earth's shadow,  

DLR